Location: Gerlach
(40.6516°N, 119.3568°W)
Time: 04:35:13
(UTC-07:00)

Vanguard 2 Rocket - Pass Details

Date: 26 February 2024
Orbit: 555 x 3307 km, 32.9° (Epoch: 23 April)

Event Time Altitude Azimuth Distance (km) Brightness Sun altitude
Rises 19:32:01 0° 277° (W) 5,863 12.6 -21.0°
Reaches altitude 10° 19:35:49 10° 270° (W) 5,185 11.9 -21.7°
Maximum altitude 19:50:10 38° 210° (SSW) 4,147 10.3 -24.4°
Drops below altitude 10° 20:07:36 10° 151° (SSE) 6,194 10.7 -27.7°
Enters shadow 20:08:18 - 150° (SSE) 6,311 10.8 -27.8°
